Change the Weather History Date:

Wednesday, February 19, 2014

  Actual Average Record
Temperature  
Mean Temperature 44 °F 46 °F  
Max Temperature 50 °F 54 °F 78 °F (1995)
Min Temperature 37 °F 37 °F 19 °F (1955)
Degree Days  
Heating Degree Days 21 19  
Month to date heating degree days 343 383  
Since 1 July heating degree days 2794 2702  
Cooling Degree Days 0 0  
Month to date cooling degree days 0 0  
Year to date cooling degree days 0 0  
Moisture  
Dew Point 36 °F    
Average Humidity 77    
Maximum Humidity 92    
Minimum Humidity 61    
Precipitation  
Precipitation 0.06 in 0.13 in 1.25 in (1999)
Month to date precipitation 5.50 2.82  
Year to date precipitation 7.26 7.91  
Sea Level Pressure  
Sea Level Pressure 30.26 in    
Wind  
Wind Speed 3 mph (SSE)    
Max Wind Speed 12 mph    
Max Gust Speed 14 mph    
Visibility 7 miles    
Events Rain    
T = Trace of Precipitation, MM = Missing Value Source: NWS Daily Summary

Daily Weather History Graph

Daily Weather History Graph

Search for Another Location

Airport or City:

Trip Planner

Search our weather history database for the weather conditions in past years. The results will help you decide how hot, cold, wet, or windy it might be!

Date:

Astronomy

Feb. 19, 2014 Rise Set
Actual Time 7:05 AM PST 5:49 PM PST
Civil Twilight 6:36 AM PST 6:18 PM PST
Nautical Twilight 6:03 AM PST 6:52 PM PST
Astronomical Twilight 5:30 AM PST 7:25 PM PST
Moon 10:58 PM PST (2/19) 9:05 AM PST (2/19)
Length of Visible Light 11h 42m
Length of Day
10h 44m
Waning Gibbous, 79% of the Moon is Illuminated
Feb 19
Waning Gibbous
Feb 22
Last Quarter
Mar 1
New
Mar 8
First Quarter
Mar 16
Full

Hourly Weather History & Observations

Time (PST) Temp. Windchill Dew Point Humidity Pressure Visibility Wind Dir Wind Speed Gust Speed Precip Events Conditions
12:53 AM 39.0 °F - 36.0 °F 89% 30.14 in 10.0 mi Calm Calm - N/A   Scattered Clouds
1:53 AM 37.0 °F - 35.1 °F 93% 30.16 in 7.0 mi Calm Calm - N/A   Clear
2:09 AM 37.9 °F - 35.1 °F 89% 30.16 in 5.0 mi Calm Calm - N/A   Partly Cloudy
2:28 AM 37.9 °F - 35.1 °F 89% 30.16 in 3.0 mi Calm Calm - N/A   Mostly Cloudy
2:36 AM 37.9 °F - 36.0 °F 93% 30.16 in 1.8 mi Calm Calm - N/A   Mostly Cloudy
2:53 AM 37.9 °F 32.7 °F 36.0 °F 93% 30.18 in 1.2 mi SE 6.9 mph - N/A   Overcast
3:08 AM 37.9 °F 34.4 °F 36.0 °F 93% 30.17 in 1.5 mi SE 4.6 mph - N/A   Overcast
3:20 AM 37.9 °F 34.4 °F 36.0 °F 93% 30.18 in 2.0 mi ESE 4.6 mph - N/A   Overcast
3:53 AM 37.0 °F 31.6 °F 35.1 °F 93% 30.19 in 2.5 mi SE 6.9 mph - N/A   Overcast
4:10 AM 37.0 °F 32.4 °F 35.1 °F 93% 30.19 in 3.0 mi SE 5.8 mph - N/A   Overcast
4:26 AM 37.0 °F 34.5 °F 35.1 °F 93% 30.19 in 7.0 mi SE 3.5 mph - N/A   Overcast
4:53 AM 37.9 °F - 35.1 °F 89% 30.22 in 7.0 mi Calm Calm - 0.00 in Rain Light Rain
5:53 AM 37.0 °F 31.6 °F 35.1 °F 93% 30.23 in 7.0 mi SSE 6.9 mph - 0.01 in   Overcast
6:53 AM 37.9 °F 32.7 °F 35.1 °F 89% 30.23 in 10.0 mi SSE 6.9 mph - N/A   Overcast
7:53 AM 39.0 °F 35.7 °F 35.1 °F 86% 30.25 in 10.0 mi SSE 4.6 mph - 0.00 in   Overcast
8:53 AM 41.0 °F - 36.0 °F 82% 30.28 in 10.0 mi Calm Calm - N/A   Overcast
9:53 AM 44.1 °F 42.5 °F 37.0 °F 76% 30.31 in 10.0 mi SE 3.5 mph - 0.00 in   Overcast
10:53 AM 45.0 °F 42.6 °F 37.9 °F 76% 30.31 in 10.0 mi Variable 4.6 mph - 0.00 in Rain Light Rain
11:02 AM 46.0 °F 43.1 °F 37.9 °F 73% 30.30 in 7.0 mi SSW 5.8 mph - 0.01 in Rain Light Rain
11:10 AM 46.0 °F 43.9 °F 37.0 °F 71% 30.30 in 10.0 mi SSE 4.6 mph - 0.01 in   Mostly Cloudy
11:53 AM 46.9 °F - 37.9 °F 71% 30.31 in 10.0 mi SSE 6.9 mph - 0.01 in   Clear
12:53 PM 46.9 °F - 36.0 °F 66% 30.31 in 10.0 mi SW 9.2 mph - 0.00 in   Mostly Cloudy
1:53 PM 45.0 °F 41.8 °F 37.9 °F 76% 30.32 in 6.0 mi North 5.8 mph - 0.00 in Rain Light Rain
2:53 PM 50.0 °F - 35.1 °F 57% 30.30 in 10.0 mi Calm Calm - 0.00 in   Partly Cloudy
3:53 PM 50.0 °F - 37.0 °F 61% 30.30 in 10.0 mi North 5.8 mph - 0.00 in   Overcast
4:48 PM 46.4 °F 41.9 °F 39.2 °F 76% 30.29 in 1.8 mi SW 9.2 mph - 0.02 in Rain Rain
4:53 PM 46.0 °F - 35.1 °F 66% 30.30 in 1.5 mi Calm Calm - 0.03 in Rain Rain
4:59 PM 46.0 °F - 36.0 °F 68% 30.29 in 3.0 mi Calm Calm - 0.01 in Rain Light Rain
5:53 PM 44.1 °F 42.5 °F 39.0 °F 82% 30.30 in 10.0 mi SE 3.5 mph - 0.01 in   Mostly Cloudy
6:53 PM 43.0 °F - 37.9 °F 82% 30.32 in 10.0 mi Calm Calm - N/A   Mostly Cloudy
7:53 PM 43.0 °F - 37.9 °F 82% 30.33 in 10.0 mi Calm Calm - N/A   Overcast
8:53 PM 42.1 °F - 37.9 °F 85% 30.34 in 10.0 mi Calm Calm - N/A   Overcast
9:53 PM 39.9 °F - 37.0 °F 89% 30.35 in 9.0 mi Calm Calm - N/A   Partly Cloudy
10:53 PM 39.9 °F 37.8 °F 37.0 °F 89% 30.34 in 10.0 mi South 3.5 mph - N/A   Overcast
11:53 PM 41.0 °F 38.0 °F 37.0 °F 86% 30.35 in 10.0 mi SSE 4.6 mph - N/A   Overcast